www.pogodaiklimat.ru

Погода и климат >> Архив погоды >> Индия >> Ajmer


ПОГОДА в Ajmer

  • Прогноз погоды в Ajmer
  • Монитор погоды в Ajmer
  • Климат города

АРХИВ ПОГОДЫ в Ajmer

Время (UTC), дата Ветер
(напр.,м/с)
 
Видим.   Явления Облачность Т
(С)
Тd
(С)
f
(%)
Тe
(С)
Тes
(С)
Комфортность P
(гПа)
Po
(гПа)
Тmin
(С)
Tmax
(С)
R
(мм)
R24
(мм)
S
(см)
00 12.12 штиль 0 2000 м мгла {дождь} 3/0
[Ci fib]
+13.2 +10.9 86 +13 +13 1014.7 1015.0 0.6
03 12.12 Ю 1 2000 м дымка ясно +13.0 +11.1 88 +14 +15 1017.2 1017.0 +11.3 +24.6 0.6
06 12.12 Ю 1 2000 м мгла ясно +20.6 +11.6 56 +24 +33 комфорт 1016.4 1016.0
09 12.12 З 3 2000 м мгла 4/4 600 м
[Sc diur, vesp]
+23.6 +9.7 41 +25 +28 комфорт 1013.4 1013.0
12 12.12 З 1 2000 м мгла ясно +20.4 +8.6 47 +23 +23 комфорт 1014.2 1014.0 +24.5
15 12.12 нст 2 2000 м мгла ясно +16.8 +12.1 74 +17 +17 1017.4 1017.0
18 12.12 СВ 2 2000 м мгла ясно +15.6 +11.1 75 +16 +16 1017.5 1018.0
21 12.12 СВ 1 2000 м мгла ясно +13.8 +10.4 80 +14 +14 1017.7 1018.0
00 13.12 СВ 2 2000 м мгла ясно +13.0 +9.9 81 +13 +13 1019.3 1019.0
03 13.12 СВ 2 1000 м дымка ясно +13.0 +9.5 79 +13 +14 1021.5 1022.0 +10.2 +24.5
06 13.12 СВ 2 2000 м мгла ясно +18.6 +10.0 57 +20 +28 1021.5 1022.0
09 13.12 С 1 2000 м мгла ясно +19.4 +8.7 50 +21 +29 комфорт 1018.7 1019.0
12 13.12 З 1 2000 м мгла ясно +18.0 +7.3 50 +20 +20 1019.0 1019.0 +21.0
15 13.12 штиль 0 2000 м мгла ясно +15.4 +7.4 59 +15 +15 1021.1 1021.0
18 13.12 штиль 0 2000 м мгла ясно +12.6 +7.3 70 +12 +12 1022.2 1022.0
21 13.12 штиль 0 2000 м мгла ясно +10.6 +7.3 80 +10 +10 1022.3 1022.0
00 14.12 СВ 1 2000 м мгла ясно +10.2 +7.3 82 +10 +10 1022.3 1022.0
03 14.12 СВ 1 1000 м дымка ясно +11.8 +8.1 78 +12 +13 1023.9 1024.0 +9.5 +21.0
06 14.12 С 1 2000 м мгла ясно +17.8 +4.9 43 +19 +30 1023.8 1024.0
09 14.12 СВ 2 4000 м ясно +20.0 +4.3 36 +21 +27 комфорт 1020.9 1021.0
12 14.12 СВ 2 2000 м мгла ясно +18.6 +5.6 42 +19 +19 1020.8 1021.0 +21.2
15 14.12 С 2 2000 м мгла ясно +15.0 +5.3 52 +15 +15 1023.2 1023.0
18 14.12 СВ 2 2000 м мгла ясно +13.0 +5.3 59 +13 +13 1023.8 1024.0
21 14.12 СВ 1 2000 м мгла ясно +11.2 +6.1 71 +11 +11 1023.8 1024.0
00 15.12 С 2 2000 м мгла ясно +10.8 +5.1 68 +10 +10 1022.7 1023.0
03 15.12 СВ 1 2000 м мгла ясно +11.6 +6.6 71 +12 +13 1024.4 1024.0 +9.5 +21.2
06 15.12 С 1 2000 м мгла ясно +17.4 +5.5 45 +18 +28 1023.5 1024.0
09 15.12 СВ 2 4000 м ясно +20.0 +4.3 36 +21 +27 комфорт 1020.2 1020.0
12 15.12 СВ 2 2000 м мгла ясно +18.6 +3.2 36 +19 +19 1020.3 1020.0 +20.7
15 15.12 С 1 2000 м мгла ясно +14.2 +4.8 53 +15 +15 1022.2 1022.0
18 15.12 СВ 2 2000 м мгла ясно +13.2 +4.5 56 +13 +13 1023.1 1023.0
21 15.12 СВ 1 2000 м мгла ясно +12.0 +5.1 63 +12 +12 1023.1 1023.0
00 16.12 С 1 2000 м дымка ясно +8.4 +4.8 78 +8 +8 1023.4 1023.0
03 16.12 СВ 1 2000 м мгла ясно +10.2 +4.4 67 +10 +11 1024.7 1025.0 +7.6 +20.7
06 16.12 СВ 2 2000 м мгла ясно +18.0 +4.7 41 +19 +28 1023.5 1024.0
09 16.12 СВ 2 2000 м мгла 3/0
[Ac trans]
+21.4 +4.8 34 +22 +27 комфорт 1019.7 1020.0
12 16.12 СВ 1 2000 м мгла 8/0
[Ac trans]
+19.6 +5.4 39 +21 +21 комфорт 1019.5 1020.0 +22.6
15 16.12 СВ 2 2000 м мгла 8/0
[Ac trans]
+15.6 +5.1 50 +16 +16 1021.5 1022.0
18 16.12 СВ 1 2000 м мгла 5/0
[Ac trans]
+13.0 +4.3 55 +13 +13 1022.6 1023.0
21 16.12 СВ 1 2000 м мгла 5/0
[Ac trans]
+12.0 +4.6 61 +12 +12 1022.7 1023.0
00 17.12 В 1 2000 м мгла 5/0
[Ac trans]
+11.0 +3.3 59 +11 +11 1021.6 1022.0
03 17.12 СВ 2 2000 м мгла 8/3 600 м
[Sc Ac trans]
+13.0 +4.3 55 +12 +13 1022.6 1023.0 +9.4 +22.6
06 17.12 В 1 2000 м мгла 8/3 600 м
[Sc Ac trans]
+17.4 +4.3 42 +18 +22 1021.5 1022.0
09 17.12 В 2 2000 м мгла 9/3 600 м
[Sc Ac trans Ci fib]
+20.0 +1.7 30 +21 +23 комфорт 1018.1 1018.0
12 17.12 СВ 2 2000 м мгла 5/1 600 м
[Sc Ac trans]
+19.0 +2.0 32 +20 +20 1018.1 1018.0 +21.0
15 17.12 штиль 0 2000 м мгла 1/0
[Ac trans]
+12.2 +4.3 58 +12 +12 1021.1 1021.0
18 17.12 С 1 2000 м мгла ясно +10.4 +4.1 65 +10 +10 1021.5 1022.0
21 17.12 штиль 0 2000 м мгла ясно +9.4 +3.9 68 +9 +9 1021.3 1021.0
00 18.12 штиль 0 2000 м мгла ясно +8.8 +3.2 68 +8 +8 1020.9 1021.0
03 18.12 СВ 2 1000 м мгла ясно +10.8 +5.1 68 +10 +11 1022.5 1023.0 +6.9 +21.0
06 18.12 Ю 1 4000 м ясно +22.4 +2.7 27 +22 +33 комфорт 1019.7 1020.0
09 18.12 Ю 1 4000 м ясно +24.0 +1.6 23 +23 +31 комфорт 1016.9 1017.0
12 18.12 ЮЗ 1 4000 м ясно +21.6 +5.1 34 +22 +22 комфорт 1016.5 1017.0 +25.0
15 18.12 штиль 0 2000 м мгла ясно +13.4 +3.7 52 +13 +13 1019.4 1019.0
18 18.12 С 2 2000 м мгла ясно +11.4 +1.5 51 +11 +11 1020.7 1021.0

 

Местоположение метеостанции Ajmer (Rajasthan, Индия): широта 26.45 долгота 74.62 высота над уровнем моря 486 м.

В архиве по умолчанию представлена погода в Ajmer за последнюю неделю. Архивные данные за месяц целиком и за предыдущие месяцы, начиная с января 2011 года, Вы можете получить, выбрав интересующий диапазон дат из раскрывающегося списка и нажав кнопку "Ввод!".


*Определитесь, кто Вы:
робот инопланетянин человек

Внимание! Время в таблицах - всемирное. Для получения местного времени необходимо прибавить поправку, которая в Ajmer равна 5.5 ч.

Смотрите также архив погоды в соседних городах и на ближайших метеорологических станциях:

Погода в Bhilwara (Rajasthan, Индия) (122 км)
Погода в Jaipur (Rajasthan, Индия) (124 км)
Погода в Jodhpur (Rajasthan, Индия) (160 км)
Погода в Chittorgarh (Rajasthan, Индия) (175 км)
Погода в Kota (Rajasthan, Индия) (190 км)
Погода в Churu (Rajasthan, Индия) (202 км)
Погода в Bikaner (Rajasthan, Индия) (216 км)
Погода в Maharana Pratap Airport (Rajasthan, Индия) (217 км)
Погода в Sheopur (Madhya Pradesh, Индия) (223 км)
Погода в Pilani (Rajasthan, Индия) (230 км)

Пояснения к столбцам:

Ветер - указаны скорость ветра в м/с - средняя за 10 мин, порывы в срок и между сроками (в фигурных скобках) и направление, откуда дует ветер: С - северный, СВ - северо-восточный, В - восточный, ЮВ - юго-восточный, Ю - южный, ЮЗ - юго-западный, З - западный, СЗ - северо-западный.
Видимость - горизонтальная дальность видимости в метрах или километрах. При видимости от 1 до 10 км при отсутствии осадков обычно наблюдается дымка, при ухудшении видимости до 1 км и менее - туман. В сухую погоду видимость может ухудшаться дымом, пылью или мглою.
Явления - указаны атмосферные явления, наблюдавшиеся в срок или в последний час перед сроком; фигурными скобками обозначены явления, наблюдавшиеся между сроками (за 1-3 часа до срока); квадратными скобками обозначены град или гололедные отложения с указанием их диаметра в мм.
Облачность - указаны через наклонную черту общая и нижняя облачность в баллах и высота нижней границы облаков в метрах; квадратными скобками обозначены формы облаков: Ci - перистые, Cs - перисто-слоистые, Cc - перисто-кучевые, Ac - высококучевые, As - высокослоистые, Sc - слоисто-кучевые, Ns - слоисто-дождевые, Cu - кучевые, Cb - кучево-дождевые. Подробнее классификацию облаков см. в Атласе облаков (PDF).
T - Температура воздуха - температура, измеренная на высоте 2 м над землей.
Td - Температура точки росы - температура, при понижении до которой содержащийся в воздухе водяной пар достигнет насыщения.
f - Относительная влажность воздуха - влажноcть воздуха, измеренная на высоте 2 м над землей.
Te - Эффективная температура - температура, которую ощущает одетый по сезону человек в тени. Характеристика душности погоды. При расчете учитывается влияние влажности воздуха и скорости ветра на теплоощущения человека.
Tes - Эффективная температура на солнце - температура, которую ощущает человек, с поправкой на солнечный нагрев. Характеристика знойности погоды. Зависит от высоты солнца над горизонтом, облачности и скорости ветра. Ночью, в пасмурную погоду, а также при ветре 12 м/с и более поправка равна нулю.
P - Атмосферное давление - приведенное к уровню моря атмосферное давление.
Po - Атмосферное давление - измеренное на уровне метеостанции атмосферное давление.
Tmin - Минимальная температура - минимум температуры воздуха на высоте 2 м над землей.
Tmax - Максимальная температура - максимум температуры воздуха на высоте 2 м над землей.
R - Количество осадков - Количество выпавших осадков за период времени, мм. При наведении курсора мыши на число - период времени, за который выпало указанное количество осадков.
R24 - Количество осадков - Количество выпавших осадков за 24 часа, мм.
S - Снежный покров - Высота снежного покрова, см. При наведении курсора мыши на число - состояние снежного покрова и степень покрытия местности в баллах.